Location: ??????
(41.3794°N, 22.5014°E)
Time: 21:09:14
(UTC+00:00)

CZ-4B R/B - Pass Details

Date: 30 November 2020
Orbit: 809 x 881 km, 99.1° (Epoch: 19 January)

Event Time Altitude Azimuth Distance (km) Brightness Sun altitude
Rises 16:13:08 0° 174° (S) 3,344 6.5 -13.2°
Reaches altitude 10° 16:15:31 10° 178° (S) 2,407 5.8 -13.6°
Maximum altitude 16:20:45 60° 258° (WSW) 930 3.7 -14.5°
Drops below altitude 10° 16:26:00 10° 338° (NNW) 2,403 5.6 -15.5°
Sets 16:28:22 0° 343° (NNW) 3,338 6.3 -15.9°
